Location: Corcelles
(46.1547°N, 4.7234°E)
Time: 04:39:31
(UTC+00:00)

Cosmos 1869 Rocket - Pass Details

Date: 14 July 2020
Orbit: 605 x 632 km, 82.5° (Epoch: 06 August)

Event Time Altitude Azimuth Distance (km) Brightness Sun altitude
Exits shadow 02:04:43 24° 239° (WSW) 1,260 4.6 -15.4°
Maximum altitude 02:06:34 35° 286° (WNW) 986 4.4 -15.2°
Drops below altitude 10° 02:10:34 10° 353° (N) 1,971 6.8 -14.8°
Sets 02:12:58 0° 2° (N) 2,883 8.0 -14.6°
